{"data":{"norad_id":65237,"intl_designator":"2025-179C","name":"STARLINK-34958","alt_names":[],"object_type":"PAYLOAD","status":"ACTIVE","operator":null,"country":"US","launch_date":"2025-08-18","launch_site_code":"AFWTR","launch_vehicle":null,"mission":null,"orbit_class":"UNKNOWN","rcs_meters":null,"size_class":null,"mass_kg":null,"dimensions":null,"purposes":["comms"],"wikipedia_slug":null,"has_3d_model":false,"image_url":null,"decayed_at":null,"tle_current":{"epoch":"2026-09-20T14:10:07.665600Z","epoch_age_seconds":109693,"freshness":"FRESH","line1":"1 65237U 25179C   26263.59036650  .00015390  00000+0  47761-3 0  9995","line2":"2 65237  97.2831 302.8625 0000833 102.6700 257.4636 15.33475358 61476","mean_motion":15.33475358,"eccentricity":8.33e-5,"inclination_deg":97.2831,"raan_deg":302.8625,"arg_perigee_deg":102.67,"mean_anomaly_deg":257.4636,"bstar":0.00047761,"rev_number":6147,"period_min":93.904345608663,"perigee_km":464.88278088425,"apogee_km":466.02292295358,"semimajor_km":6843.5898519189,"source":"CELESTRAK","updated_at":"2026-09-21T09:00:35.539821Z"}}}